Date String (YYYY-MM-DD hh:mm:ss) UTC,Instrument flags,Ambient pressure (hPa),Sample flow (lpm),Bypass flow (lpm),Sample temperature (°C),Ambient temperature (°C),ASC tube jacket temperature (°C),LED temperature (°C),Box temperature (°C),Sample RH (%),Span deviation,Mass concentration (μg/m³),Mass concentration (μg/m³),Mass concentration (μg/m³)
DateTimeUTC,F1_M11,P_M11,Q1_M11,Q2_M11,T1_M11,T2_M11,T3_M11,T4_M11,T5_M11,U1_M11,ZSPAN_M11,X2_M11,X0_M11,X1_M11
2022-02-18 00:00:00,,0823.7,5.00,0.00,22.2,21.6,00.0,31.0,24.0,08.6,0000.0,0005.48,0008.26,0005.16
2022-02-18 00:01:00,,0823.7,5.02,0.00,22.2,21.6,00.0,31.0,24.0,08.6,0000.0,0005.47,0008.32,0005.17
2022-02-18 00:02:00,,0823.7,5.00,0.00,22.2,21.6,00.0,31.0,24.1,08.5,0000.0,0005.49,0008.43,0005.18
2022-02-18 00:03:00,,0823.6,5.00,0.00,22.2,21.6,00.0,31.0,24.1,08.5,0000.0,0005.50,0008.74,0005.18
2022-02-18 00:04:00,,0823.7,4.99,0.00,22.2,21.6,00.0,31.1,24.1,08.5,0000.0,0005.52,0008.93,0005.19
2022-02-18 00:05:00,,0823.7,5.00,0.00,22.2,21.6,00.0,31.1,24.1,08.5,0000.0,0005.52,0009.00,0005.20
2022-02-18 00:06:00,,0823.7,5.00,0.00,22.3,21.6,00.0,31.1,24.1,08.5,0000.0,0005.53,0009.05,0005.21
2022-02-18 00:07:00,,0823.6,5.01,0.00,22.3,21.6,00.0,31.1,24.1,08.5,0000.0,0005.53,0009.09,0005.21
2022-02-18 00:08:00,,0823.7,5.00,0.00,22.3,21.6,00.0,31.1,24.1,08.5,0000.0,0005.54,0008.88,0005.21
2022-02-18 00:09:00,,0823.7,5.00,0.00,22.3,21.6,00.0,31.1,24.1,08.5,0000.0,0005.58,0008.56,0005.23
2022-02-18 00:10:00,,0823.7,4.99,0.00,22.3,21.6,00.0,31.1,24.1,08.4,0000.0,0005.61,0008.64,0005.25
2022-02-18 00:11:00,,0823.7,5.00,0.00,22.3,21.6,00.0,31.1,24.1,08.4,0000.0,0005.62,0008.70,0005.26
2022-02-18 00:12:00,,0823.7,5.01,0.00,22.3,21.6,00.0,31.1,24.1,08.4,0000.0,0005.62,0008.63,0005.26
2022-02-18 00:13:00,,0823.7,5.00,0.00,22.3,21.6,00.0,31.2,24.1,08.4,0000.0,0005.62,0008.53,0005.26
2022-02-18 00:14:00,,0823.6,4.99,0.00,22.3,21.7,00.0,31.2,24.1,08.4,0000.0,0005.64,0008.35,0005.27
2022-02-18 00:15:00,,0823.7,5.00,0.00,22.3,21.7,00.0,31.2,24.1,08.4,0000.0,0005.64,0008.58,0005.28
2022-02-18 00:16:00,,0823.7,5.00,0.00,22.3,21.7,00.0,31.2,24.1,08.4,0000.0,0005.64,0008.64,0005.28
2022-02-18 00:17:00,,0823.6,5.01,0.00,22.3,21.7,00.0,31.2,24.1,08.3,0000.0,0005.64,0008.60,0005.29
2022-02-18 00:18:00,,0823.6,4.99,0.00,22.3,21.7,00.0,31.2,24.1,08.3,0000.0,0005.62,0008.51,0005.30
2022-02-18 00:19:00,,0823.6,5.00,0.00,22.3,21.7,00.0,31.2,24.1,08.3,0000.0,0005.65,0008.61,0005.30
2022-02-18 00:20:00,,0823.4,5.00,0.00,22.3,21.7,00.0,31.2,24.2,08.3,0000.0,0005.64,0009.07,0005.31
2022-02-18 00:21:00,,0823.4,5.01,0.00,22.3,21.7,00.0,31.2,24.1,08.3,0000.0,0005.64,0009.13,0005.31
2022-02-18 00:22:00,,0823.3,5.01,0.00,22.3,21.7,00.0,31.2,24.1,08.3,0000.0,0005.64,0009.09,0005.31
2022-02-18 00:23:00,,0823.5,4.98,0.00,22.3,21.7,00.0,31.2,24.1,08.3,0000.0,0005.64,0009.13,0005.30
2022-02-18 00:24:00,,0823.3,5.00,0.00,22.3,21.7,00.0,31.2,24.1,08.3,0000.0,0005.66,0009.17,0005.30
2022-02-18 00:25:00,,0823.3,5.00,0.00,22.3,21.6,00.0,31.2,24.1,08.3,0000.0,0005.64,0009.49,0005.31
2022-02-18 00:26:00,,0823.3,5.01,0.00,22.3,21.6,00.0,31.2,24.1,08.3,0000.0,0005.66,0009.28,0005.32
2022-02-18 00:27:00,,0823.4,5.00,0.00,22.3,21.6,00.0,31.2,24.1,08.4,0000.0,0005.71,0009.16,0005.34
2022-02-18 00:28:00,,0823.4,4.99,0.00,22.3,21.6,00.0,31.2,24.1,08.4,0000.0,0005.72,0009.19,0005.35
2022-02-18 00:29:00,,0823.3,4.99,0.00,22.3,21.6,00.0,31.2,24.1,08.4,0000.0,0005.74,0009.25,0005.35
2022-02-18 00:30:00,,0823.4,5.02,0.00,22.3,21.6,00.0,31.2,24.1,08.4,0000.0,0005.71,0009.18,0005.35
2022-02-18 00:31:00,,0823.4,4.99,0.00,22.3,21.6,00.0,31.2,24.1,08.4,0000.0,0005.70,0008.69,0005.36
2022-02-18 00:32:00,,0823.4,4.99,0.00,22.3,21.6,00.0,31.2,24.1,08.4,0000.3,0005.70,0008.61,0005.37
2022-02-18 00:33:00,,0823.3,5.01,0.00,22.3,21.5,00.0,31.2,24.1,08.4,0000.3,0005.72,0008.62,0005.38
2022-02-18 00:34:00,,0823.3,4.99,0.00,22.3,21.5,00.0,31.2,24.0,08.4,0000.0,0005.74,0008.63,0005.39
2022-02-18 00:35:00,,0823.3,4.99,0.00,22.3,21.5,00.0,31.2,24.0,08.3,0000.0,0005.78,0008.75,0005.40
2022-02-18 00:36:00,,0823.3,5.01,0.00,22.3,21.5,00.0,31.2,24.0,08.3,0000.0,0005.80,0008.42,0005.40
2022-02-18 00:37:00,,0823.4,4.99,0.00,22.2,21.5,00.0,31.2,24.0,08.3,0000.0,0005.79,0008.36,0005.39
2022-02-18 00:38:00,,0823.4,4.99,0.00,22.2,21.5,00.0,31.2,24.0,08.3,0000.0,0005.76,0008.32,0005.38
2022-02-18 00:39:00,,0823.4,5.00,0.00,22.2,21.5,00.0,31.2,24.0,08.3,0000.0,0005.75,0008.73,0005.37
2022-02-18 00:40:00,,0823.3,5.02,0.00,22.2,21.5,00.0,31.2,24.0,08.3,0000.0,0005.73,0008.87,0005.35
2022-02-18 00:41:00,,0823.4,4.99,0.00,22.2,21.5,00.0,31.2,23.9,08.3,0000.0,0005.74,0008.86,0005.35
2022-02-18 00:42:00,,0823.3,4.99,0.00,22.2,21.5,00.0,31.2,23.9,08.3,0000.0,0005.74,0009.13,0005.33
2022-02-18 00:43:00,,0823.3,5.01,0.00,22.2,21.5,00.0,31.2,23.9,08.3,0000.0,0005.72,0009.45,0005.32
2022-02-18 00:44:00,,0823.4,5.00,0.00,22.2,21.5,00.0,31.2,23.9,08.3,0000.0,0005.71,0009.44,0005.30
2022-02-18 00:45:00,,0823.4,5.00,0.00,22.2,21.5,00.0,31.2,23.9,08.3,0000.0,0005.67,0009.37,0005.29
2022-02-18 00:46:00,,0823.4,4.99,0.00,22.2,21.5,00.0,31.2,23.9,08.3,0000.4,0005.63,0009.25,0005.27
2022-02-18 00:47:00,,0823.5,5.00,0.00,22.1,21.4,00.0,31.2,23.9,08.3,0000.9,0005.61,0009.26,0005.26
2022-02-18 00:48:00,,0823.3,5.01,0.00,22.1,21.4,00.0,31.2,23.9,08.3,0000.6,0005.57,0009.37,0005.24
2022-02-18 00:49:00,,0823.3,4.99,0.00,22.1,21.4,00.0,31.1,23.9,08.3,0000.0,0005.56,0009.34,0005.23
2022-02-18 00:50:00,,0823.4,4.99,0.00,22.1,21.4,00.0,31.1,23.9,08.4,0000.0,0005.56,0008.95,0005.22
2022-02-18 00:51:00,,0823.4,5.01,0.00,22.1,21.4,00.0,31.1,23.9,08.3,0000.0,0005.57,0009.57,0005.22
2022-02-18 00:52:00,,0823.4,5.00,0.00,22.1,21.4,00.0,31.1,23.9,08.3,0000.0,0005.54,0009.53,0005.22
2022-02-18 00:53:00,,0823.4,5.00,0.00,22.1,21.3,00.0,31.1,23.9,08.3,0000.0,0005.53,0009.38,0005.21
2022-02-18 00:54:00,,0823.4,5.00,0.00,22.1,21.4,00.0,31.1,23.8,08.3,0000.0,0005.52,0008.92,0005.20
2022-02-18 00:55:00,,0823.4,5.01,0.00,22.1,21.3,00.0,31.1,23.8,08.4,0000.0,0005.52,0008.92,0005.20
2022-02-18 00:56:00,,0823.4,4.98,0.00,22.1,21.3,00.0,31.1,23.8,08.4,0000.0,0005.54,0008.98,0005.22
2022-02-18 00:57:00,,0823.4,5.01,0.00,22.1,21.3,00.0,31.1,23.8,08.4,0000.0,0005.55,0009.03,0005.22
2022-02-18 00:58:00,,0823.4,4.99,0.00,22.1,21.3,00.0,31.1,23.8,08.4,0000.0,0005.56,0009.07,0005.22
2022-02-18 00:59:00,,0823.5,5.01,0.00,22.0,21.3,00.0,31.1,23.8,08.4,0000.0,0005.58,0008.87,0005.22
